Location: Gajan
(43.0218°N, 1.1244°E)
Time: 15:30:21
(UTC+00:00)

FALCON 9 DEB - Pass Details

Date: 22 April 2021
Orbit: 364 x 384 km, 53.0° (Epoch: 12 May)

Event Time Altitude Azimuth Distance (km) Brightness Sun altitude
Rises 20:39:07 0° 251° (WSW) 2,194 7.1 -18.9°
Reaches altitude 10° 20:41:13 10° 260° (W) 1,350 6.1 -19.2°
Maximum altitude 20:44:04 38° 331° (NNW) 572 4.2 -19.6°
Enters shadow 20:46:01 17° 34° (NE) 1,011 5.0 -19.8°
